Wind From: 11-12-2017 12:03 Until: 12-12-2017 06:00 warning for: Wind Level: Orange info button

Power and phone distribution networks may be disrupted for relatively long periods., Roofs and chimneys can be damaged. , Tree branches may break. , Vehicles can be deported. , Traffic may be disrupted, particularly on secondary roads in forest areas. Limit your trips. , Limit your speed in highway driving, especially if you drive a vehicle or hitch sensitive to wind. , Do not go for walks in forests or along the coast., In town, be vigilant against possible falling objects., Do not work on roofs and do not touch any electrical line fallen on the ground., Store or secure sensitive objects to wind or likely to be damaged., Always install power generators outside buildings. 


Meteo18 Weather Cam more information Meteo18 Weather Cam


Thunder radar more information blitzortung!


Rain radar more information rain snow radar


Visit our other weather sites:

Template documentation
and downloads

And another site



Weather Underground History page Text

Daily Summary for April 3, 2017 Units:  English    Metric   Both
« Previous Day
Next Day »
Daily Weekly Monthly Yearly Custom
  High: Low: Average:
Temperature: 65.5 °F 46 °F 55.6 °F
Dew Point: 48.4 °F 41.2 °F 43.9 °F
Humidity: 85 % 42 % 66 %
Wind Speed: 11 mph 0 mph 3.1 mph
Wind Gust: 17 mph - -
Wind:- - SW
Pressure: 30.3 in 30.3 in -
Precipitation: 0 in    
Historical Graphs
 
 
Tabular Data for April 3, 2017
Time Temperature Dew Point Pressure Wind Wind Speed Wind Gust Humidity Rainfall Rate (Hourly)
00:02 51.4 °F 44.8 °F 30.3 in NW 2 mph 3 mph 78 % 0 in
00:07 51.3 °F 44.6 °F 30.3 in NW 1 mph 4 mph 78 % 0 in
00:12 51.4 °F 44.8 °F 30.3 in NW 1 mph 4 mph 78 % 0 in
00:17 51.4 °F 44.8 °F 30.3 in NW 2 mph 4 mph 78 % 0 in
00:22 51.4 °F 44.8 °F 30.3 in NW 2 mph 4 mph 78 % 0 in
00:27 51.4 °F 44.8 °F 30.3 in NW 3 mph 3 mph 78 % 0 in
00:32 51.3 °F 44.6 °F 30.3 in Calm   3 mph 78 % 0 in
00:37 51.3 °F 44.6 °F 30.3 in NW 2 mph 3 mph 78 % 0 in
00:42 51.3 °F 44.6 °F 30.3 in NNW 2 mph 4 mph 78 % 0 in
00:52 51.3 °F 44.6 °F 30.3 in NW 1 mph 4 mph 78 % 0 in
00:57 51.3 °F 44.6 °F 30.3 in NW 1 mph 2 mph 78 % 0 in
01:02 51.3 °F 44.2 °F 30.3 in Calm   2 mph 77 % 0 in
01:07 51.3 °F 44.6 °F 30.3 in NW 1 mph 2 mph 78 % 0 in
01:12 51.1 °F 44.4 °F 30.3 in NW 2 mph 4 mph 78 % 0 in
01:17 51.1 °F 44.4 °F 30.3 in Calm   4 mph 78 % 0 in
01:22 50.9 °F 44.2 °F 30.3 in NNW 1 mph 4 mph 78 % 0 in
01:27 50.9 °F 44.2 °F 30.3 in Calm   2 mph 78 % 0 in
01:32 50.7 °F 44.1 °F 30.3 in Calm   2 mph 78 % 0 in
01:37 50.5 °F 44.2 °F 30.3 in Calm   2 mph 79 % 0 in
01:42 50.2 °F 43.9 °F 30.3 in Calm   1 mph 79 % 0 in
01:47 50.2 °F 44.2 °F 30.3 in Calm   2 mph 80 % 0 in
01:57 50.4 °F 44.1 °F 30.3 in NNW 1 mph 3 mph 79 % 0 in
02:02 50.4 °F 44.1 °F 30.3 in Calm   3 mph 79 % 0 in
02:07 50.5 °F 44.2 °F 30.3 in NW 2 mph 3 mph 79 % 0 in
02:12 50.5 °F 43.9 °F 30.3 in Calm   3 mph 78 % 0 in
02:17 50.5 °F 43.9 °F 30.3 in NW 1 mph 3 mph 78 % 0 in
02:22 50.5 °F 43.9 °F 30.3 in NNW 1 mph 3 mph 78 % 0 in
02:27 50.5 °F 43.9 °F 30.3 in NW 1 mph 4 mph 78 % 0 in
02:32 50.7 °F 44.1 °F 30.3 in NNW 1 mph 4 mph 78 % 0 in
02:37 50.7 °F 43.7 °F 30.3 in NNW 2 mph 5 mph 77 % 0 in
02:42 50.9 °F 43.9 °F 30.3 in NNW 2 mph 5 mph 77 % 0 in
02:47 51.1 °F 43.7 °F 30.3 in NW 2 mph 4 mph 76 % 0 in
02:52 50.7 °F 43.7 °F 30.3 in NNW 1 mph 4 mph 77 % 0 in
02:57 50.5 °F 43.5 °F 30.3 in NW 2 mph 4 mph 77 % 0 in
03:02 50.4 °F 43.3 °F 30.3 in NW 1 mph 4 mph 77 % 0 in
03:07 50.2 °F 43.5 °F 30.3 in NW 1 mph 3 mph 78 % 0 in
03:12 50 °F 43.3 °F 30.3 in NW 1 mph 3 mph 78 % 0 in
03:17 50.2 °F 43.5 °F 30.3 in NW 2 mph 3 mph 78 % 0 in
03:22 50.2 °F 43.5 °F 30.3 in NW 1 mph 3 mph 78 % 0 in
03:27 50 °F 43.3 °F 30.3 in NW 1 mph 3 mph 78 % 0 in
03:32 50 °F 43.2 °F 30.3 in NW 1 mph 4 mph 77 % 0 in
03:37 49.8 °F 43.2 °F 30.3 in NNW 2 mph 4 mph 78 % 0 in
03:42 49.8 °F 43.2 °F 30.3 in Calm   4 mph 78 % 0 in
03:47 49.6 °F 43 °F 30.3 in NW 2 mph 4 mph 78 % 0 in
03:52 49.5 °F 43.2 °F 30.3 in NNW 3 mph 4 mph 79 % 0 in
03:57 49.5 °F 43.2 °F 30.3 in NNW 2 mph 4 mph 79 % 0 in
04:02 49.5 °F 43.2 °F 30.3 in NNW 2 mph 5 mph 79 % 0 in
04:07 49.5 °F 42.8 °F 30.3 in NNW 3 mph 5 mph 78 % 0 in
04:12 49.5 °F 42.8 °F 30.3 in NW 2 mph 5 mph 78 % 0 in
04:17 49.5 °F 42.8 °F 30.3 in NNW 3 mph 6 mph 78 % 0 in
04:22 49.5 °F 42.8 °F 30.3 in NW 2 mph 6 mph 78 % 0 in
04:27 49.6 °F 43 °F 30.3 in NNW 2 mph 4 mph 78 % 0 in
04:32 49.6 °F 42.8 °F 30.3 in North 3 mph 5 mph 77 % 0 in
04:42 49.6 °F 42.8 °F 30.3 in NNW 1 mph 5 mph 77 % 0 in
04:47 49.5 °F 42.6 °F 30.3 in North 3 mph 5 mph 77 % 0 in
04:52 49.6 °F 42.8 °F 30.3 in North 2 mph 5 mph 77 % 0 in
04:57 49.6 °F 42.8 °F 30.3 in NNE 3 mph 6 mph 77 % 0 in
05:02 49.6 °F 42.8 °F 30.3 in North 4 mph 7 mph 77 % 0 in
05:07 49.6 °F 42.8 °F 30.3 in NNW 2 mph 9 mph 77 % 0 in
05:12 49.8 °F 43 °F 30.3 in NNW 2 mph 9 mph 77 % 0 in
05:17 49.8 °F 43 °F 30.3 in NW 2 mph 8 mph 77 % 0 in
05:22 49.6 °F 42.8 °F 30.3 in NNW 1 mph 8 mph 77 % 0 in
05:27 49.6 °F 42.8 °F 30.3 in NW 2 mph 5 mph 77 % 0 in
05:32 49.6 °F 42.8 °F 30.3 in NNW 2 mph 5 mph 77 % 0 in
05:37 49.6 °F 42.8 °F 30.3 in NNW 3 mph 5 mph 77 % 0 in
05:42 49.5 °F 42.6 °F 30.3 in NNW 2 mph 6 mph 77 % 0 in
05:47 49.5 °F 42.6 °F 30.3 in NNW 3 mph 6 mph 77 % 0 in
05:52 49.3 °F 42.8 °F 30.3 in NNE 4 mph 6 mph 78 % 0 in
05:57 48.9 °F 42.4 °F 30.3 in NNW 1 mph 6 mph 78 % 0 in
06:02 48.9 °F 42.4 °F 30.3 in NNW 2 mph 5 mph 78 % 0 in
06:12 48.6 °F 42.3 °F 30.3 in NW 2 mph 4 mph 79 % 0 in
06:17 48.4 °F 42.4 °F 30.3 in NNW 1 mph 4 mph 80 % 0 in
06:22 48.4 °F 42.4 °F 30.3 in NNW 2 mph 4 mph 80 % 0 in
06:27 48.4 °F 42.4 °F 30.3 in NNW 2 mph 4 mph 80 % 0 in
06:32 48 °F 42.1 °F 30.3 in NNW 3 mph 5 mph 80 % 0 in
06:37 47.8 °F 42.3 °F 30.3 in NNW 1 mph 6 mph 81 % 0 in
06:42 47.7 °F 42.1 °F 30.3 in NNW 4 mph 6 mph 81 % 0 in
06:47 47.5 °F 41.9 °F 30.3 in NNW 2 mph 6 mph 81 % 0 in
06:52 47.5 °F 42.3 °F 30.3 in NNW 1 mph 5 mph 82 % 0 in
07:02 47.3 °F 42.1 °F 30.3 in NNW 2 mph 6 mph 82 % 0 in
07:07 47.5 °F 42.3 °F 30.3 in Calm   6 mph 82 % 0 in
07:12 46.9 °F 41.7 °F 30.3 in NNW 1 mph 6 mph 82 % 0 in
07:17 46.8 °F 41.9 °F 30.3 in NNW 2 mph 5 mph 83 % 0 in
07:22 46.6 °F 41.7 °F 30.3 in North 1 mph 4 mph 83 % 0 in
07:27 46.2 °F 41.7 °F 30.3 in NW 1 mph 4 mph 84 % 0 in
07:32 46 °F 41.7 °F 30.3 in NW 2 mph 4 mph 85 % 0 in
07:37 46 °F 41.7 °F 30.3 in NNW 1 mph 4 mph 85 % 0 in
07:42 46.2 °F 41.9 °F 30.3 in NW 3 mph 4 mph 85 % 0 in
07:47 46.4 °F 42.1 °F 30.3 in NNW 1 mph 4 mph 85 % 0 in
07:52 46.6 °F 42.1 °F 30.3 in Calm   4 mph 84 % 0 in
07:57 46.8 °F 42.3 °F 30.3 in NNW 3 mph 5 mph 84 % 0 in
08:07 47.1 °F 42.3 °F 30.3 in NNW 1 mph 5 mph 83 % 0 in
08:12 47.3 °F 42.4 °F 30.3 in Calm   4 mph 83 % 0 in
08:17 47.5 °F 42.6 °F 30.3 in Calm   4 mph 83 % 0 in
08:22 47.7 °F 42.8 °F 30.3 in NNW 2 mph 4 mph 83 % 0 in
08:27 47.8 °F 43 °F 30.3 in Calm   4 mph 83 % 0 in
08:37 48.7 °F 43.5 °F 30.3 in NNW 1 mph 4 mph 82 % 0 in
08:42 49.1 °F 43.9 °F 30.3 in NNW 1 mph 4 mph 82 % 0 in
08:47 49.5 °F 43.9 °F 30.3 in NE 3 mph 5 mph 81 % 0 in
08:52 49.8 °F 43.9 °F 30.3 in North 2 mph 6 mph 80 % 0 in
08:57 50.2 °F 44.2 °F 30.3 in NNE 3 mph 6 mph 80 % 0 in
09:02 50.5 °F 44.6 °F 30.3 in NNE 3 mph 6 mph 80 % 0 in
09:12 50.7 °F 45.1 °F 30.3 in NE 2 mph 7 mph 81 % 0 in
09:17 51.1 °F 45.5 °F 30.3 in NNE 3 mph 7 mph 81 % 0 in
09:22 51.4 °F 45.5 °F 30.3 in NNW 5 mph 7 mph 80 % 0 in
09:27 51.8 °F 45.5 °F 30.3 in NNE 5 mph 7 mph 79 % 0 in
09:32 52 °F 45.7 °F 30.3 in NNW 5 mph 8 mph 79 % 0 in
09:37 52.3 °F 45.7 °F 30.3 in NNW 2 mph 8 mph 78 % 0 in
09:42 52.7 °F 45.7 °F 30.3 in NNE 6 mph 10 mph 77 % 0 in
09:47 53.1 °F 46 °F 30.3 in North 4 mph 10 mph 77 % 0 in
09:52 53.2 °F 46.2 °F 30.3 in North 5 mph 10 mph 77 % 0 in
09:57 53.4 °F 46 °F 30.3 in NNE 4 mph 10 mph 76 % 0 in
10:02 53.8 °F 46.4 °F 30.3 in NE 4 mph 10 mph 76 % 0 in
10:07 54 °F 46.2 °F 30.3 in ENE 3 mph 10 mph 75 % 0 in
10:12 54.1 °F 46 °F 30.3 in NNE 7 mph 11 mph 74 % 0 in
10:17 54.7 °F 46.9 °F 30.3 in NNE 4 mph 11 mph 75 % 0 in
10:22 54.9 °F 46.8 °F 30.3 in NW 3 mph 10 mph 74 % 0 in
10:27 54.9 °F 46 °F 30.3 in NNW 6 mph 11 mph 72 % 0 in
10:32 55 °F 45.9 °F 30.3 in North 9 mph 11 mph 71 % 0 in
10:37 55.4 °F 46.6 °F 30.3 in NNE 5 mph 10 mph 72 % 0 in
10:42 55.6 °F 46 °F 30.3 in NE 6 mph 10 mph 70 % 0 in
10:47 55.8 °F 46 °F 30.3 in NNE 6 mph 11 mph 70 % 0 in
10:52 55.9 °F 46.8 °F 30.3 in NNE 6 mph 11 mph 71 % 0 in
10:57 56.3 °F 46.9 °F 30.3 in NNE 8 mph 11 mph 71 % 0 in
11:02 56.7 °F 46.9 °F 30.3 in North 2 mph 9 mph 70 % 0 in
11:07 56.8 °F 46.8 °F 30.3 in NE 4 mph 9 mph 69 % 0 in
11:12 57.2 °F 47.5 °F 30.3 in NNE 2 mph 9 mph 70 % 0 in
11:17 57.7 °F 47.3 °F 30.3 in NNE 3 mph 8 mph 68 % 0 in
11:22 57.9 °F 46.2 °F 30.3 in NE 5 mph 7 mph 65 % 0 in
11:27 58.3 °F 46.9 °F 30.3 in NE 3 mph 6 mph 66 % 0 in
11:32 58.6 °F 46.9 °F 30.3 in East 1 mph 6 mph 65 % 0 in
11:37 59.2 °F 46.9 °F 30.3 in NNW 3 mph 6 mph 64 % 0 in
11:42 59.5 °F 47.3 °F 30.3 in NNE 4 mph 6 mph 64 % 0 in
11:47 59.9 °F 48 °F 30.3 in NE 3 mph 6 mph 65 % 0 in
11:52 60.1 °F 46.6 °F 30.3 in NE 4 mph 6 mph 61 % 0 in
11:57 60.1 °F 46.6 °F 30.3 in ENE 4 mph 9 mph 61 % 0 in
12:02 60.3 °F 46.8 °F 30.3 in NE 2 mph 9 mph 61 % 0 in
12:07 60.6 °F 47.1 °F 30.3 in NNE 4 mph 8 mph 61 % 0 in
12:12 60.8 °F 46.4 °F 30.3 in NE 3 mph 9 mph 59 % 0 in
12:17 61 °F 46.9 °F 30.3 in East 7 mph 9 mph 60 % 0 in
12:22 61 °F 46.6 °F 30.3 in ENE 5 mph 9 mph 59 % 0 in
12:27 61.2 °F 47.1 °F 30.3 in NNE 6 mph 9 mph 60 % 0 in
12:32 61.3 °F 47.3 °F 30.3 in North 5 mph 10 mph 60 % 0 in
12:42 61.3 °F 46 °F 30.3 in NNE 7 mph 15 mph 57 % 0 in
12:47 61.7 °F 46.8 °F 30.3 in ENE 5 mph 15 mph 58 % 0 in
12:52 61.9 °F 46.4 °F 30.3 in NE 4 mph 15 mph 57 % 0 in
12:57 61.9 °F 46.9 °F 30.3 in NE 5 mph 14 mph 58 % 0 in
13:02 62.2 °F 46.8 °F 30.3 in NNE 10 mph 14 mph 57 % 0 in
13:07 62.1 °F 46.2 °F 30.3 in NNE 7 mph 14 mph 56 % 0 in
13:12 62.4 °F 48.4 °F 30.3 in ENE 10 mph 12 mph 60 % 0 in
13:17 62.6 °F 46.2 °F 30.3 in ENE 2 mph 13 mph 55 % 0 in
13:22 62.8 °F 47.3 °F 30.3 in NE 4 mph 13 mph 57 % 0 in
13:27 63 °F 46.9 °F 30.3 in NNE 7 mph 16 mph 56 % 0 in
13:32 63 °F 46.9 °F 30.3 in NE 9 mph 16 mph 56 % 0 in
13:37 63 °F 46.6 °F 30.3 in NNE 8 mph 16 mph 55 % 0 in
13:42 63 °F 46.6 °F 30.3 in Calm   13 mph 55 % 0 in
13:47 63.1 °F 47.1 °F 30.3 in NE 3 mph 13 mph 56 % 0 in
13:57 63.1 °F 46.8 °F 30.3 in NNW 8 mph 16 mph 55 % 0 in
14:02 63 °F 46.6 °F 30.3 in NNE 11 mph 17 mph 55 % 0 in
14:07 62.6 °F 47.7 °F 30.3 in NNE 6 mph 17 mph 58 % 0 in
14:12 62.8 °F 46.9 °F 30.3 in NNE 7 mph 17 mph 56 % 0 in
14:17 63 °F 45.1 °F 30.3 in East 5 mph 14 mph 52 % 0 in
14:22 63.3 °F 45.9 °F 30.3 in NNE 10 mph 10 mph 53 % 0 in
14:27 63.1 °F 45.1 °F 30.3 in NNE 6 mph 12 mph 52 % 0 in
14:32 62.8 °F 45 °F 30.3 in NW 4 mph 12 mph 52 % 0 in
14:42 62.8 °F 47.3 °F 30.3 in NE 5 mph 17 mph 57 % 0 in
14:47 63.7 °F 46.2 °F 30.3 in NNE 8 mph 17 mph 53 % 0 in
14:52 63.5 °F 46 °F 30.3 in NNE 2 mph 17 mph 53 % 0 in
14:57 64 °F 47.1 °F 30.3 in NE 9 mph 13 mph 54 % 0 in
15:02 64.6 °F 46 °F 30.3 in North 7 mph 12 mph 51 % 0 in
15:07 64.4 °F 45.3 °F 30.3 in NNE 9 mph 14 mph 50 % 0 in
15:12 63.9 °F 45.3 °F 30.3 in NNE 5 mph 14 mph 51 % 0 in
15:17 63.3 °F 45 °F 30.3 in NE 2 mph 14 mph 51 % 0 in
15:22 63.9 °F 44.8 °F 30.3 in North 9 mph 12 mph 50 % 0 in
15:32 64 °F 46 °F 30.3 in NE 5 mph 16 mph 52 % 0 in
15:37 63.7 °F 45.7 °F 30.3 in NE 6 mph 16 mph 52 % 0 in
15:42 64.4 °F 46.4 °F 30.3 in WNW 7 mph 14 mph 52 % 0 in
15:47 64.9 °F 45.9 °F 30.3 in NNW 6 mph 11 mph 50 % 0 in
15:52 64.8 °F 46.2 °F 30.3 in ENE 3 mph 16 mph 51 % 0 in
15:57 64 °F 44.4 °F 30.3 in NE 7 mph 16 mph 49 % 0 in
16:02 64 °F 44.4 °F 30.3 in NE 5 mph 13 mph 49 % 0 in
16:07 64 °F 45.5 °F 30.3 in NW 6 mph 12 mph 51 % 0 in
16:12 63.7 °F 44.8 °F 30.3 in North 4 mph 12 mph 50 % 0 in
16:17 63.9 °F 45.3 °F 30.3 in NNW 7 mph 12 mph 51 % 0 in
16:22 64.6 °F 45 °F 30.3 in NNW 10 mph 10 mph 49 % 0 in
16:27 64.8 °F 44.6 °F 30.3 in NNW 4 mph 11 mph 48 % 0 in
16:32 64.9 °F 43.7 °F 30.3 in NNW 4 mph 11 mph 46 % 0 in
16:37 65.1 °F 44.4 °F 30.3 in NNW 8 mph 11 mph 47 % 0 in
16:42 64.9 °F 44.2 °F 30.3 in NNW 3 mph 12 mph 47 % 0 in
16:47 65.1 °F 44.4 °F 30.3 in NW 1 mph 12 mph 47 % 0 in
16:52 65.5 °F 43.5 °F 30.3 in North 8 mph 12 mph 45 % 0 in
16:57 65.1 °F 43.3 °F 30.3 in North 7 mph 12 mph 45 % 0 in
17:02 65.3 °F 42.8 °F 30.3 in NNW 6 mph 12 mph 44 % 0 in
17:07 65.3 °F 43.3 °F 30.3 in NNW 3 mph 13 mph 45 % 0 in
17:12 65.1 °F 43.3 °F 30.3 in North 9 mph 14 mph 45 % 0 in
17:22 65.1 °F 42.6 °F 30.3 in NNE 6 mph 14 mph 44 % 0 in
17:27 64.9 °F 42.4 °F 30.3 in NNW 5 mph 12 mph 44 % 0 in
17:32 64.8 °F 41.7 °F 30.3 in North 4 mph 11 mph 43 % 0 in
17:37 64.8 °F 43 °F 30.3 in NNW 6 mph 11 mph 45 % 0 in
17:42 64.9 °F 42.4 °F 30.3 in North 2 mph 11 mph 44 % 0 in
17:47 64.9 °F 41.9 °F 30.3 in North 4 mph 11 mph 43 % 0 in
17:52 64.9 °F 42.4 °F 30.3 in NE 6 mph 11 mph 44 % 0 in
17:57 64.9 °F 41.9 °F 30.3 in North 9 mph 10 mph 43 % 0 in
18:02 64.8 °F 42.3 °F 30.3 in NNW 4 mph 11 mph 44 % 0 in
18:12 64.8 °F 41.2 °F 30.3 in NW 4 mph 12 mph 42 % 0 in
18:17 64.6 °F 42.8 °F 30.3 in NNW 4 mph 11 mph 45 % 0 in
18:22 64.4 °F 42.1 °F 30.3 in NNE 6 mph 11 mph 44 % 0 in
18:32 64 °F 41.7 °F 30.3 in NNW 2 mph 12 mph 44 % 0 in
18:42 64 °F 41.7 °F 30.3 in NNE 4 mph 10 mph 44 % 0 in
18:47 64 °F 43.3 °F 30.3 in NE 4 mph 9 mph 47 % 0 in
18:52 63.9 °F 42.1 °F 30.3 in NNW 5 mph 9 mph 45 % 0 in
18:57 63.7 °F 42.4 °F 30.3 in North 7 mph 9 mph 46 % 0 in
19:02 63.7 °F 42.4 °F 30.3 in North 4 mph 9 mph 46 % 0 in
19:07 63.5 °F 43 °F 30.3 in NNE 2 mph 9 mph 47 % 0 in
19:12 63.3 °F 42.8 °F 30.3 in NNW 4 mph 9 mph 47 % 0 in
19:17 63.1 °F 43.2 °F 30.3 in NNW 3 mph 8 mph 48 % 0 in
19:22 63 °F 43.5 °F 30.3 in North 4 mph 8 mph 49 % 0 in
19:32 62.4 °F 42.4 °F 30.3 in NNE 2 mph 10 mph 48 % 0 in
19:37 62.4 °F 42.4 °F 30.3 in NNW 2 mph 10 mph 48 % 0 in
19:42 62.1 °F 42.1 °F 30.3 in NNE 2 mph 10 mph 48 % 0 in
19:47 61.7 °F 41.9 °F 30.3 in NE 3 mph 7 mph 48 % 0 in
19:52 61.3 °F 42.1 °F 30.3 in NNW 3 mph 7 mph 49 % 0 in
19:57 61 °F 42.3 °F 30.3 in NNE 2 mph 7 mph 50 % 0 in
20:02 60.3 °F 42.1 °F 30.3 in NE 1 mph 6 mph 51 % 0 in
20:07 59.7 °F 42.1 °F 30.3 in NNE 4 mph 6 mph 52 % 0 in
20:12 59.4 °F 42.3 °F 30.3 in NNW 1 mph 6 mph 53 % 0 in
20:17 59.2 °F 42.1 °F 30.3 in Calm   5 mph 53 % 0 in
20:22 58.8 °F 42.3 °F 30.3 in NNW 2 mph 5 mph 54 % 0 in
20:27 58.6 °F 42.4 °F 30.3 in North 2 mph 4 mph 55 % 0 in
20:32 58.3 °F 42.6 °F 30.3 in North 3 mph 4 mph 56 % 0 in
20:37 57.9 °F 42.3 °F 30.3 in NNW 1 mph 4 mph 56 % 0 in
20:42 57.6 °F 41.9 °F 30.3 in NNW 2 mph 4 mph 56 % 0 in
20:47 57.2 °F 42.1 °F 30.3 in North 4 mph 4 mph 57 % 0 in
20:52 57 °F 41.9 °F 30.3 in North 2 mph 4 mph 57 % 0 in
20:57 56.7 °F 42.1 °F 30.3 in NW 1 mph 4 mph 58 % 0 in
21:02 56.5 °F 42.3 °F 30.3 in North 1 mph 4 mph 59 % 0 in
21:07 56.1 °F 41.9 °F 30.3 in North 2 mph 5 mph 59 % 0 in
21:12 55.9 °F 41.9 °F 30.3 in North 1 mph 5 mph 59 % 0 in
21:17 55.8 °F 42.1 °F 30.3 in North 2 mph 4 mph 60 % 0 in
21:22 55.4 °F 42.3 °F 30.3 in North 1 mph 3 mph 61 % 0 in
21:32 54.9 °F 42.1 °F 30.3 in Calm   3 mph 62 % 0 in
21:37 54.7 °F 41.9 °F 30.3 in NNW 1 mph 2 mph 62 % 0 in
21:42 54.5 °F 42.1 °F 30.3 in Calm   1 mph 63 % 0 in
21:47 54.5 °F 42.1 °F 30.3 in NNW 1 mph 1 mph 63 % 0 in
21:52 54.3 °F 42.1 °F 30.3 in NW 1 mph 2 mph 63 % 0 in
21:57 54.1 °F 41.9 °F 30.3 in NW 1 mph 2 mph 63 % 0 in
22:02 54.1 °F 42.3 °F 30.3 in NW 1 mph 2 mph 64 % 0 in
22:12 52.9 °F 42.3 °F 30.3 in WNW 2 mph 3 mph 67 % 0 in
22:17 52.3 °F 42.1 °F 30.3 in WNW 2 mph 3 mph 68 % 0 in
22:22 52.3 °F 42.1 °F 30.3 in NW 2 mph 2 mph 68 % 0 in
22:27 53.2 °F 42.3 °F 30.3 in NW 1 mph 2 mph 66 % 0 in
22:32 53.4 °F 41.9 °F 30.3 in WNW 1 mph 2 mph 65 % 0 in
22:37 53.4 °F 41.9 °F 30.3 in NW 1 mph 2 mph 65 % 0 in
22:42 53.2 °F 42.3 °F 30.3 in WNW 2 mph 2 mph 66 % 0 in
22:47 51.6 °F 41.7 °F 30.3 in WNW 2 mph 2 mph 69 % 0 in
22:52 51.4 °F 41.9 °F 30.3 in WNW 1 mph 2 mph 70 % 0 in
22:57 50.5 °F 41.9 °F 30.3 in WNW 2 mph 2 mph 72 % 0 in
23:02 50.4 °F 42.1 °F 30.3 in WNW 2 mph 2 mph 73 % 0 in
23:07 50.4 °F 42.1 °F 30.3 in WNW 2 mph 2 mph 73 % 0 in
23:12 50.2 °F 41.9 °F 30.3 in WNW 2 mph 2 mph 73 % 0 in
23:17 50.2 °F 41.9 °F 30.3 in WNW 2 mph 3 mph 73 % 0 in
23:22 50.2 °F 41.9 °F 30.3 in WNW 2 mph 3 mph 73 % 0 in
23:27 50.7 °F 41.7 °F 30.3 in WNW 1 mph 3 mph 71 % 0 in
23:32 51.3 °F 41.9 °F 30.3 in NW 2 mph 3 mph 70 % 0 in
23:42 51.8 °F 41.5 °F 30.3 in NW 1 mph 3 mph 68 % 0 in
23:47 51.1 °F 41.7 °F 30.3 in WNW 2 mph 2 mph 70 % 0 in
23:52 50.7 °F 41.7 °F 30.3 in WNW 2 mph 2 mph 71 % 0 in
23:57 50.4 °F 41.7 °F 30.3 in WNW 2 mph 2 mph 72 % 0 in
Meteo18
Compliments of Weather Underground - 4 mb

Script developed by  Jim McMurry - jmcmurry@mwt.net Adapted for the template by  Wim van der Kuil - Leuven-Template.eu

You find our weather info also at:

European Weather Network

Weather Underground

Equipment we use:

Weather-station
Davis Vue

Weather-program
Meteohub

Weather-server
Raspberry PI 2 B+

Provider
1 and 1

Davis Vue

Meteohub

Raspberry PI 2 B+

1 and 1